Location: Ku?niki
(51.4449°N, 17.8974°E)
Time: 02:36:32
(UTC+00:00)

Cosmos 1536 Rocket - Pass Details

Date: 18 September 2020
Orbit: 606 x 632 km, 82.5° (Epoch: 22 October)

Event Time Altitude Azimuth Distance (km) Brightness Sun altitude
Rises 18:30:53 0° 349° (N) 2,914 7.5 -15.3°
Reaches altitude 10° 18:33:07 10° 350° (N) 2,007 6.6 -15.6°
Maximum altitude 18:37:35 86° 77° (ENE) 636 3.5 -16.3°
Enters shadow 18:41:16 15° 169° (S) 1,698 5.5 -16.8°
